Flag for Japan Weather past 2 weeks in Himeji, Japan

Now
79 °F

Passing clouds.


Feels Like: 82 °F
Forecast: 74 / 93 °F
Wind: 5 mph from Northwest

Location: Osaka International Airport

Current Time: Aug 2, 2015 at 5:46:22 AM

Latest Report: Aug 2, 2015 at 5:00 AM


Visibility: N/A

Pressure: 29.89 "Hg

Humidity: 79%

Dew point: 72 °F

Location of HimejiLocation

Historic Weather in Himeji — Graph

°F

Himeji temperature yesterday

Maximum temperature yesterday: 99 °F (at 2:00 PM)
Minimum temperature yesterday: 81 °F (at 5:00 AM)
Average temperature yesterday: 92 °F

Past Weeks' High & Low Weather Summary

 TemperatureHumidityPressure
High99 °F (Aug 1, 2:00 PM)100% (Jul 17, 8:00 PM)29.98 "Hg (Jul 17, 8:00 PM)
Low70 °F (Jul 18, 5:00 AM)37% (Aug 1, 5:00 PM)29.62 "Hg (Jul 17, 8:00 PM)
Average85 °F68%29.84 "Hg
* Reported Jul 17 8:00 PM — Aug 1 8:00 PM, Himeji, Weather by CustomWeather, © 2015

Note: Actual official high and low records may vary slightly from our data, if they occured in-between our weather recording intervals... More about our weather records

Advertising

Himeji weather history for previous 24 hours

 ConditionsComfort  
Time TempWeatherWind HumidityBarometerVisibility
8:00 PM
Sat, Aug 1
88 °FPassing clouds.5 mph59%29.83 "HgN/A
7:00 PM90 °FScattered clouds.9 mph59%29.80 "HgN/A
6:00 PM95 °FPassing clouds.7 mph39%29.80 "HgN/A
5:00 PM99 °FPassing clouds.7 mph37%29.80 "HgN/A
4:00 PM99 °FPassing clouds.8 mph39%29.80 "HgN/A
3:00 PM99 °FPassing clouds.7 mph42%29.80 "HgN/A
2:00 PM99 °FPassing clouds.7 mph44%29.80 "HgN/A
1:00 PM97 °FPassing clouds.5 mph47%29.83 "HgN/A
12:00 PM97 °FPassing clouds.3 mph47%29.83 "HgN/A
11:00 AM93 °FPassing clouds.5 mph49%29.86 "Hg6 mi
10:00 AM93 °FPassing clouds.3 mph56%29.86 "Hg6 mi
9:45 AM93 °FPassing clouds.2 mph56%29.86 "Hg6 mi
9:00 AM90 °FClear.2 mph63%29.86 "Hg6 mi
8:00 AM86 °FSunny.1 mph70%29.86 "Hg10 mi
7:00 AM84 °FSunny.3 mph74%29.86 "Hg10 mi
6:00 AM82 °FSunny.2 mph79%29.86 "Hg10 mi
5:00 AM81 °FClear.3 mph84%29.83 "Hg10 mi
Weather by CustomWeather, © 2015

See weather overviewHow to use our weather pages